Simultaneous Nadir Overpasses (SNOs) Predictions

Prediction of SNOs between GOES-15 and NPP Satellite Orbit:

Table of predicted SNOs for the next 14.0 days since TLE Epoch: 4/26/2015
Index Date Time (GOES-15) GOES-15 Lat,Lon NPP Lat,Lon Distance(km) Time Diff (sec)
1 04/27/2015 10:29:20 0.07,-135.41 0.02,-135.10 35.05 80
2 04/29/2015 22:32:27 -0.07,-135.41 -0.18,-135.86 51.74 80
3 04/30/2015 22:16:21 -0.07,-135.42 0.84,-131.33 466.89 80
4 05/02/2015 10:38:06 0.07,-135.49 0.31,-136.60 126.30 80
5 05/03/2015 10:16:39 0.07,-135.50 -0.72,-132.06 391.86 80
6 05/04/2015 22:38:32 -0.07,-135.47 -0.51,-137.35 215.12 80
7 05/05/2015 22:22:25 -0.07,-135.47 0.51,-132.81 302.63 80
8 05/07/2015 10:41:31 0.07,-135.52 0.63,-138.09 292.01 80
9 05/08/2015 10:25:24
